[[{"header":{"parameterUnit":"m.s-1","parameterCategory":2,"la1":30.2991,"la2":30.254,"lo1":-89.0895,"lo2":-89.0444,"dy":0.0017,"dx":0.0017,"nx":28,"ny":28,"refTime":"2025-04-15T03:00:00:Z","depth":"0","parameterNumber":2,"parameterNumberName":"U-component_of_CURRENTS"},"data":[0,0,0,0,0,0,0,0,0,0,0,0,0,0,0,0,0,0,0,0,0,0,0,0,0,0,0,0,0,0,0,0,0,0,0,0,0,0,0,0,0,0,0,0,0,0,0,0,0,0,0,0,0,0,0,0,0,0,-0.2567,-0.2567,0,-0.2608,-0.2609,-0.2609,-0.2576,-0.2575,-0.2573,-0.2572,-0.2493,-0.2492,-0.2491,0,0,0,0,0,0,0,0,0,0,0,0,0,-0.2475,-0.2477,-0.2567,-0.2567,-0.2568,-0.2608,-0.2609,-0.2609,-0.2576,-0.2575,-0.2573,-0.2572,-0.2493,-0.2492,-0.2491,0,0,0,0,0,0,0,0,0,0,0,0,0,-0.2514,-0.2477,-0.2567,-0.2557,-0.2557,-0.2608,-0.2609,-0.2609,-0.2577,-0.2575,-0.2573,-0.2571,-0.2494,-0.2493,-0.2491,-0.2521,0,0,-0.2487,-0.2486,0,0,0,0,0,0,0,0,-0.2512,-0.2517,-0.2558,-0.2558,-0.2558,-0.2586,-0.2548,-0.2574,-0.2577,-0.2568,-0.2572,-0.257,-0.2515,-0.2512,-0.2524,-0.2518,-0.2514,-0.2487,-0.2486,-0.2485,-0.2485,0,0,0,0,0,0,0,-0.2509,-0.2516,-0.2582,-0.2559,-0.2559,-0.2557,-0.256,-0.2553,-0.2549,-0.2568,-0.2566,-0.2574,-0.2514,-0.2526,-0.2522,-0.2513,-0.2487,-0.2486,-0.2485,-0.2484,-0.2495,-0.2496,0,0,0,0,0,0,-0.2509,-0.2513,-0.258,-0.2583,-0.2531,-0.256,-0.2564,-0.2578,-0.2551,-0.2547,-0.2576,-0.2572,-0.2529,-0.2523,-0.2519,-0.2512,-0.2485,-0.2484,-0.2483,-0.2494,-0.2495,-0.2496,0,0,0,0,0,0,-0.2507,-0.2515,-0.2579,-0.2549,-0.2558,-0.2564,-0.258,-0.258,-0.2592,-0.2558,-0.2551,-0.2588,-0.2527,-0.252,-0.2512,-0.251,-0.2484,-0.2482,-0.2493,-0.2494,-0.2496,-0.2525,0,0,0,0,0,0,-0.2504,-0.2514,-0.2525,-0.255,-0.2559,-0.262,-0.2582,-0.2582,-0.26,-0.2596,-0.2567,-0.2557,-0.2525,-0.2515,-0.2511,-0.2508,-0.2481,-0.2491,-0.2493,-0.2495,-0.2522,-0.2527,-0.2531,0,0,0,0,0,-0.2501,-0.253,-0.2526,-0.2534,-0.2575,-0.2622,-0.2627,-0.2623,-0.2603,-0.2623,-0.2592,-0.2558,-0.2524,-0.2515,-0.251,-0.2506,-0.249,-0.2493,-0.2495,-0.252,-0.2526,-0.2531,0,0,0,0,0,0,-0.2504,-0.253,-0.2526,-0.2562,-0.2593,-0.2617,-0.2634,-0.2635,-0.2632,-0.2618,-0.2577,-0.2567,-0.256,-0.254,-0.2531,-0.2518,-0.2501,-0.2502,-0.2522,-0.2527,-0.2531,-0.2533,-0.248,0,0,0,0,0,-0.251,-0.2526,-0.2561,-0.2588,-0.2606,-0.2622,-0.264,-0.2643,-0.2645,-0.2642,-0.2612,-0.2584,-0.2572,-0.2554,-0.2543,-0.2539,-0.2523,-0.2534,-0.2539,-0.2542,-0.2543,-0.253,-0.2533,-0.2504,-0.2504,-0.2504,0,0,-0.2513,-0.2532,-0.2539,-0.2587,-0.2605,-0.2635,-0.2628,-0.2664,-0.2668,-0.2633,-0.2618,-0.2605,-0.2579,-0.257,-0.2564,-0.2546,-0.2544,-0.2545,-0.2548,-0.2547,-0.2533,-0.2536,-0.2538,-0.2506,-0.2506,-0.2506,0,0,-0.2531,-0.2553,-0.2572,-0.2603,-0.2641,-0.2654,-0.2668,-0.2694,-0.2686,-0.2693,-0.2658,-0.265,-0.2626,-0.2602,-0.2589,-0.2618,-0.2577,-0.261,-0.2618,-0.2606,-0.2608,-0.2609,-0.2596,-0.2596,-0.26,-0.26,-0.26,0,-0.2536,-0.256,-0.2588,-0.262,-0.263,-0.2662,-0.2682,-0.2699,-0.2709,-0.2692,-0.2689,-0.2659,-0.2642,-0.2621,-0.2629,-0.2625,-0.261,-0.2595,-0.261,-0.2611,-0.2612,-0.2598,-0.2598,-0.2602,-0.2602,-0.2602,-0.2601,0,-0.2561,-0.2587,-0.2608,-0.264,-0.2662,-0.2693,-0.2715,-0.2719,-0.2711,-0.2715,-0.2703,-0.2695,-0.2671,-0.2669,-0.2657,-0.265,-0.2635,-0.2625,-0.2592,-0.2616,-0.2601,-0.26,-0.2604,-0.2604,-0.2603,-0.2603,0,0,-0.2543,-0.2609,-0.2612,-0.261,-0.2669,-0.2676,-0.2693,-0.2701,-0.2685,-0.2708,-0.2693,-0.2692,-0.2694,-0.2682,-0.2668,-0.2659,-0.2662,-0.2644,-0.2642,-0.2623,-0.2629,-0.2478,-0.2462,-0.2646,-0.2646,-0.2646,-0.2616,0,-0.2545,-0.2584,-0.2618,-0.2629,-0.264,-0.2663,-0.2662,-0.2671,-0.268,-0.2681,-0.2694,-0.269,-0.2698,-0.2686,-0.2688,-0.2669,-0.2659,-0.267,-0.2616,-0.2614,-0.247,-0.2456,-0.2256,-0.22,-0.2615,-0.2615,-0.2615,0,-0.2546,-0.2558,-0.2575,-0.2579,-0.2584,-0.2589,-0.256,-0.2572,-0.2602,-0.261,-0.2635,-0.2667,-0.2679,-0.2687,-0.2671,-0.2674,-0.266,-0.2646,-0.2644,-0.2489,-0.246,-0.2243,-0.2182,-0.2065,-0.2613,-0.2613,-0.2613,0,-0.2469,-0.252,-0.2512,-0.2523,-0.2547,-0.2521,-0.2518,-0.2531,-0.2536,-0.257,-0.2593,-0.2624,-0.263,-0.2638,-0.2641,-0.2652,-0.2618,-0.2626,-0.2477,-0.2467,-0.2278,-0.2249,-0.2085,-0.2612,-0.2612,-0.2612,-0.2612,0,-0.2437,-0.2427,-0.2468,-0.2452,-0.2405,-0.2443,-0.2411,-0.2408,-0.2458,-0.2468,-0.2549,-0.2565,-0.2616,-0.2625,-0.2634,-0.2538,-0.261,-0.2467,-0.2439,-0.2282,-0.2256,-0.213,-0.217,-0.2611,-0.2611,-0.2611,-0.2612,0,-0.2341,-0.2394,-0.2367,-0.2371,-0.2369,-0.2316,-0.2346,-0.2341,-0.2385,-0.2409,-0.243,-0.2512,-0.2491,-0.2531,-0.2522,-0.2481,-0.235,-0.2389,-0.2198,-0.2146,-0.1861,-0.1912,-0.1826,-0.1793,-0.2202,-0.2198,-0.2195,0,-0.2291,-0.2276,-0.2274,-0.2257,-0.2251,-0.2222,-0.2218,-0.2274,-0.2291,-0.2363,-0.2367,-0.2389,-0.2377,-0.231,-0.2212,-0.2149,-0.2192,-0.1942,-0.1915,-0.179,-0.1831,-0.1915,-0.1903,-0.1695,-0.1688,-0.1682,-0.1677,0,-0.2159,-0.2172,-0.2148,-0.2117,-0.2102,-0.211,-0.2109,-0.2121,-0.2194,-0.2219,-0.2229,-0.2234,-0.2136,-0.1945,-0.1843,-0.1805,-0.1821,-0.1813,-0.1731,-0.1445,-0.1481,-0.1452,-0.1792,-0.1624,-0.1629,-0.1633,-0.1636,-0.1638,-0.2046,-0.2,-0.199,-0.1944,-0.1965,-0.1973,-0.1927,-0.1972,-0.1975,-0.1954,-0.2041,-0.1931,-0.172,-0.1512,-0.1461,-0.1179,-0.1417,-0.1108,-0.1193,-0.1299,-0.1213,-0.1424,-0.1191,-0.1194,-0.1196,-0.1198,-0.12,0,-0.1869,-0.1854,-0.1822,-0.179,-0.1776,-0.1831,-0.184,-0.1787,-0.1735,-0.1703,-0.1676,-0.1393,-0.1136,-0.0971,-0.0647,-0.0553,-0.0627,-0.0569,-0.0636,-0.0668,-0.084,-0.0752,-0.0352,-0.0352,-0.0353,-0.0353,-0.0353,-0.0353,-0.1776,-0.1681,-0.167,-0.1593,-0.16,-0.1527,-0.1502,-0.145,-0.1385,-0.1187,-0.1006,-0.0932,-0.0683,-0.0384,-0.0135,-0.014,-0.0217,-0.0208,-0.0356,-0.0429,-0.0486,-0.0541,-0.0458,-0.0004,-0.0004,-0.0085,-0.0086,-0.0086]},{"header":{"parameterUnit":"m.s-1","parameterCategory":2,"la1":30.2991,"la2":30.254,"lo1":-89.0895,"lo2":-89.0444,"dy":0.0017,"dx":0.0017,"nx":28,"ny":28,"refTime":"2025-04-15T03:00:00:Z","depth":"0","parameterNumber":3,"parameterNumberName":"V-component_of_CURRENTS"},"data":[0,0,0,0,0,0,0,0,0,0,0,0,0,0,0,0,0,0,0,0,0,0,0,0,0,0,0,0,0,0,0,0,0,0,0,0,0,0,0,0,0,0,0,0,0,0,0,0,0,0,0,0,0,0,0,0,0,0,-0.0986,-0.0986,0,-0.0936,-0.0935,-0.0935,-0.0884,-0.0883,-0.0883,-0.0883,-0.0753,-0.075,-0.0747,0,0,0,0,0,0,0,0,0,0,0,0,0,-0.098,-0.0981,-0.0987,-0.0986,-0.0986,-0.0936,-0.0935,-0.0935,-0.0884,-0.0883,-0.0883,-0.0882,-0.0754,-0.075,-0.0747,0,0,0,0,0,0,0,0,0,0,0,0,0,-0.096,-0.0981,-0.0987,-0.0956,-0.0953,-0.0937,-0.0935,-0.0934,-0.0884,-0.0883,-0.0883,-0.0882,-0.0755,-0.0751,-0.0746,-0.0732,0,0,-0.0732,-0.073,0,0,0,0,0,0,0,0,-0.0961,-0.096,-0.0961,-0.0958,-0.0955,-0.0918,-0.0886,-0.0863,-0.0884,-0.0908,-0.0882,-0.0882,-0.0803,-0.0794,-0.0784,-0.0726,-0.072,-0.0732,-0.0729,-0.0727,-0.0726,0,0,0,0,0,0,0,-0.0963,-0.0961,-0.0964,-0.0961,-0.0957,-0.0926,-0.0922,-0.0881,-0.0856,-0.0906,-0.0902,-0.0901,-0.08,-0.0789,-0.078,-0.0718,-0.0732,-0.0728,-0.0725,-0.0723,-0.0653,-0.0653,0,0,0,0,0,0,-0.0978,-0.0963,-0.0966,-0.0963,-0.0959,-0.0927,-0.0923,-0.0928,-0.0858,-0.0848,-0.0902,-0.0899,-0.0797,-0.0786,-0.0775,-0.0779,-0.0727,-0.0723,-0.072,-0.0652,-0.0653,-0.0654,0,0,0,0,0,0,-0.0978,-0.0979,-0.0968,-0.0963,-0.096,-0.0928,-0.0935,-0.0928,-0.092,-0.0857,-0.0844,-0.0902,-0.0796,-0.0782,-0.0739,-0.0773,-0.0721,-0.0717,-0.0651,-0.0652,-0.0653,-0.077,0,0,0,0,0,0,-0.0978,-0.0979,-0.0988,-0.0965,-0.0961,-0.0969,-0.0935,-0.0927,-0.0921,-0.0917,-0.0853,-0.084,-0.0794,-0.0746,-0.0734,-0.0765,-0.0713,-0.065,-0.0651,-0.0653,-0.0765,-0.0776,-0.0784,0,0,0,0,0,-0.0978,-0.0996,-0.0989,-0.0989,-0.0974,-0.097,-0.0965,-0.0937,-0.0922,-0.0926,-0.0875,-0.0842,-0.0748,-0.0742,-0.0729,-0.076,-0.0649,-0.0651,-0.0653,-0.0761,-0.0774,-0.0784,0,0,0,0,0,0,-0.0994,-0.0992,-0.0984,-0.0998,-0.099,-0.0962,-0.0962,-0.0947,-0.0912,-0.0903,-0.0841,-0.0825,-0.0802,-0.0761,-0.0756,-0.0743,-0.0698,-0.0697,-0.0785,-0.0796,-0.0805,-0.0848,-0.0709,0,0,0,0,0,-0.1005,-0.1018,-0.1007,-0.1019,-0.1017,-0.0992,-0.0986,-0.0972,-0.094,-0.0925,-0.0879,-0.0832,-0.08,-0.0781,-0.0738,-0.0727,-0.0709,-0.074,-0.075,-0.0758,-0.0783,-0.0828,-0.0845,-0.066,-0.066,-0.066,0,0,-0.1012,-0.1014,-0.102,-0.1023,-0.1011,-0.1025,-0.0986,-0.0986,-0.0998,-0.0915,-0.0904,-0.0855,-0.0801,-0.0788,-0.0777,-0.0759,-0.0785,-0.0761,-0.0768,-0.0789,-0.0832,-0.0851,-0.0867,-0.0661,-0.0661,-0.0661,0,0,-0.1041,-0.1039,-0.106,-0.1063,-0.106,-0.1049,-0.1056,-0.1034,-0.1022,-0.1009,-0.0955,-0.0943,-0.0873,-0.0864,-0.0846,-0.0884,-0.0829,-0.0852,-0.0942,-0.0985,-0.1002,-0.1017,-0.0956,-0.0964,-0.0865,-0.0865,-0.0865,0,-0.1049,-0.1081,-0.1065,-0.109,-0.1096,-0.1069,-0.1093,-0.1086,-0.1053,-0.1051,-0.1019,-0.098,-0.0928,-0.0952,-0.0952,-0.0913,-0.0882,-0.0906,-0.1002,-0.1017,-0.103,-0.0964,-0.0972,-0.0871,-0.0871,-0.087,-0.0869,0,-0.1098,-0.1123,-0.1136,-0.1163,-0.1164,-0.1183,-0.1173,-0.1165,-0.1147,-0.115,-0.116,-0.1114,-0.1109,-0.1081,-0.1019,-0.1083,-0.1007,-0.1006,-0.0984,-0.1056,-0.098,-0.0987,-0.088,-0.0877,-0.0876,-0.0874,0,0,-0.111,-0.1163,-0.1168,-0.1182,-0.1206,-0.1202,-0.1227,-0.1241,-0.1256,-0.126,-0.1307,-0.1275,-0.128,-0.1261,-0.1212,-0.123,-0.1261,-0.1152,-0.1151,-0.1107,-0.1274,-0.1115,-0.1105,-0.1277,-0.128,-0.1283,-0.1162,0,-0.1151,-0.1213,-0.123,-0.1271,-0.1291,-0.1279,-0.1299,-0.1307,-0.1311,-0.1346,-0.137,-0.1383,-0.1347,-0.1335,-0.1378,-0.1275,-0.1292,-0.1288,-0.1197,-0.1193,-0.1059,-0.1115,-0.1052,-0.0932,-0.1168,-0.1169,-0.1169,0,-0.1192,-0.1223,-0.1282,-0.1307,-0.1312,-0.1331,-0.1337,-0.1359,-0.1413,-0.1419,-0.1499,-0.1507,-0.155,-0.1512,-0.1487,-0.1477,-0.1403,-0.133,-0.1325,-0.1152,-0.1049,-0.0908,-0.0934,-0.0864,-0.1178,-0.1178,-0.1177,0,-0.1189,-0.1251,-0.1295,-0.1311,-0.1343,-0.1343,-0.1351,-0.1379,-0.1411,-0.148,-0.1515,-0.1598,-0.1613,-0.1604,-0.1483,-0.1483,-0.1416,-0.141,-0.1204,-0.1186,-0.1105,-0.1076,-0.1077,-0.1433,-0.1433,-0.1433,-0.1434,0,-0.1223,-0.1247,-0.1291,-0.1308,-0.1328,-0.1345,-0.1384,-0.1382,-0.146,-0.1522,-0.1575,-0.1641,-0.1638,-0.161,-0.1522,-0.1361,-0.147,-0.1225,-0.1174,-0.113,-0.1107,-0.1016,-0.0988,-0.1429,-0.143,-0.1431,-0.1431,0,-0.1207,-0.1259,-0.1287,-0.1321,-0.133,-0.1332,-0.1395,-0.1438,-0.1476,-0.1563,-0.1593,-0.1667,-0.1599,-0.1537,-0.1451,-0.1361,-0.1154,-0.1157,-0.1043,-0.0981,-0.0713,-0.0692,-0.0619,-0.054,-0.092,-0.0916,-0.0912,0,-0.1205,-0.1226,-0.1275,-0.1301,-0.1315,-0.1347,-0.1385,-0.1436,-0.1492,-0.1577,-0.1625,-0.1603,-0.1601,-0.1393,-0.1205,-0.1001,-0.0986,-0.0806,-0.0829,-0.0695,-0.0637,-0.065,-0.0593,-0.0735,-0.073,-0.0726,-0.0723,0,-0.1168,-0.1193,-0.1218,-0.1278,-0.1317,-0.1391,-0.144,-0.1481,-0.1552,-0.1593,-0.1649,-0.1652,-0.1452,-0.1229,-0.0921,-0.0805,-0.072,-0.0714,-0.0666,-0.0566,-0.0499,-0.0397,-0.0742,-0.0689,-0.0692,-0.0695,-0.0696,-0.0698,-0.1117,-0.1128,-0.1181,-0.1225,-0.1315,-0.1413,-0.1437,-0.1496,-0.1552,-0.156,-0.161,-0.1503,-0.1237,-0.0812,-0.068,-0.0348,-0.0418,-0.0276,-0.0272,-0.0306,-0.022,-0.0419,-0.0258,-0.0259,-0.0259,-0.026,-0.0261,0,-0.1029,-0.1072,-0.1129,-0.1212,-0.1312,-0.1373,-0.1468,-0.1474,-0.1487,-0.1424,-0.1413,-0.1094,-0.0799,-0.0531,-0.0115,0.0049,0.0038,0.0103,0.0033,0.0063,-0.0194,-0.0177,0.0118,0.0118,0.0118,0.0117,0.0117,0.0117,-0.0984,-0.0999,-0.1039,-0.1165,-0.1259,-0.1353,-0.139,-0.1388,-0.1321,-0.113,-0.0911,-0.076,-0.0433,-0.0091,0.0239,0.0293,0.0348,0.0375,0.0402,0.0161,0.0122,0.0085,0.0104,0.0453,0.0453,0.0641,0.0643,0.0644]}],[{"header":{"parameterUnit":"m.s-1","parameterCategory":2,"la1":30.2991,"la2":30.254,"lo1":-89.0895,"lo2":-89.0444,"dy":0.0017,"dx":0.0017,"nx":28,"ny":28,"refTime":"2025-04-15T03:00:00:Z","depth":"2","parameterNumber":2,"parameterNumberName":"U-component_of_CURRENTS"},"data":[0,0,0,0,0,0,0,0,0,0,0,0,0,0,0,0,0,0,0,0,0,0,0,0,0,0,0,0,0,0,0,0,0,0,0,0,0,0,0,0,0,0,0,0,0,0,0,0,0,0,0,0,0,0,0,0,0,0,-0.2309,-0.231,0,-0.2369,-0.237,-0.2371,-0.2417,-0.2417,-0.2417,-0.2417,-0.2401,-0.24,-0.24,0,0,0,0,0,0,0,0,0,0,0,0,0,-0.224,-0.2242,-0.2309,-0.231,-0.231,-0.2368,-0.237,-0.2371,-0.2417,-0.2417,-0.2417,-0.2417,-0.2401,-0.24,-0.24,0,0,0,0,0,0,0,0,0,0,0,0,0,-0.2288,-0.2242,-0.2309,-0.2335,-0.2338,-0.2368,-0.237,-0.2372,-0.2417,-0.2417,-0.2417,-0.2417,-0.2401,-0.24,-0.24,-0.2401,0,0,-0.2399,-0.2398,0,0,0,0,0,0,0,0,-0.2285,-0.2292,-0.2331,-0.2333,-0.2336,-0.238,-0.2339,-0.2376,-0.2417,-0.2394,-0.2417,-0.2417,-0.2383,-0.2384,-0.2406,-0.2401,-0.24,-0.2399,-0.2398,-0.2398,-0.2398,0,0,0,0,0,0,0,-0.2282,-0.2289,-0.2339,-0.2331,-0.2334,-0.2344,-0.2352,-0.2347,-0.2392,-0.2396,-0.2398,-0.2394,-0.2384,-0.2406,-0.2405,-0.24,-0.2399,-0.2398,-0.2398,-0.2398,-0.2409,-0.2409,0,0,0,0,0,0,-0.2262,-0.2286,-0.2337,-0.2341,-0.2302,-0.2345,-0.2354,-0.2371,-0.2394,-0.2396,-0.2394,-0.2396,-0.2407,-0.2406,-0.2404,-0.2382,-0.2398,-0.2398,-0.2397,-0.2408,-0.2409,-0.2409,0,0,0,0,0,0,-0.2261,-0.2267,-0.2335,-0.2308,-0.2317,-0.2346,-0.2366,-0.2372,-0.2393,-0.2392,-0.2394,-0.2407,-0.2407,-0.2405,-0.2425,-0.2383,-0.2397,-0.2397,-0.2408,-0.2408,-0.2409,-0.2353,0,0,0,0,0,0,-0.2259,-0.2267,-0.2281,-0.2308,-0.2317,-0.2379,-0.2365,-0.2373,-0.2388,-0.2391,-0.2404,-0.2403,-0.2406,-0.2426,-0.2425,-0.2382,-0.2397,-0.2407,-0.2408,-0.2409,-0.2354,-0.2352,-0.235,0,0,0,0,0,-0.2257,-0.2268,-0.2282,-0.2288,-0.2334,-0.238,-0.2389,-0.2411,-0.2389,-0.2424,-0.2426,-0.2402,-0.243,-0.2427,-0.2425,-0.2381,-0.2406,-0.2408,-0.2409,-0.2355,-0.2353,-0.235,0,0,0,0,0,0,-0.2253,-0.2274,-0.229,-0.2311,-0.2355,-0.2386,-0.2394,-0.2408,-0.2438,-0.2428,-0.2421,-0.2423,-0.2423,-0.2425,-0.2421,-0.2394,-0.2409,-0.241,-0.2369,-0.2366,-0.2364,-0.2326,-0.2396,0,0,0,0,0,-0.2255,-0.2268,-0.2306,-0.2329,-0.2336,-0.2364,-0.238,-0.2408,-0.2428,-0.2441,-0.2459,-0.2453,-0.2428,-0.2417,-0.2432,-0.2415,-0.2425,-0.2386,-0.2383,-0.2381,-0.2353,-0.232,-0.2311,-0.2414,-0.2414,-0.2414,0,0,-0.2255,-0.227,-0.2278,-0.2328,-0.2344,-0.2353,-0.2376,-0.2407,-0.2412,-0.243,-0.245,-0.246,-0.2431,-0.2423,-0.2418,-0.2413,-0.2379,-0.2383,-0.238,-0.2353,-0.232,-0.231,-0.23,-0.2415,-0.2414,-0.2414,0,0,-0.225,-0.2276,-0.2278,-0.2311,-0.2347,-0.2357,-0.2362,-0.2417,-0.2438,-0.2476,-0.2459,-0.2427,-0.2466,-0.2395,-0.2359,-0.2345,-0.2381,-0.2384,-0.2316,-0.2285,-0.2275,-0.2266,-0.2347,-0.2346,-0.2365,-0.2364,-0.2364,0,-0.2255,-0.2247,-0.2293,-0.2304,-0.2312,-0.2345,-0.2351,-0.2369,-0.2438,-0.2411,-0.2484,-0.2435,-0.2416,-0.2287,-0.2304,-0.2322,-0.239,-0.2319,-0.2277,-0.2268,-0.2259,-0.2344,-0.2343,-0.2362,-0.2362,-0.2362,-0.2363,0,-0.2237,-0.224,-0.2236,-0.2246,-0.2291,-0.2292,-0.2329,-0.235,-0.2373,-0.2368,-0.2333,-0.2345,-0.2284,-0.2287,-0.2295,-0.2205,-0.2309,-0.2289,-0.2271,-0.2244,-0.2339,-0.2338,-0.2358,-0.2359,-0.236,-0.2361,0,0,-0.2227,-0.2214,-0.2227,-0.2203,-0.2251,-0.2275,-0.2268,-0.2237,-0.217,-0.2247,-0.219,-0.2135,-0.2135,-0.2098,-0.2099,-0.2086,-0.2107,-0.2189,-0.2188,-0.2251,-0.2168,-0.2038,-0.2027,-0.2117,-0.2114,-0.2113,-0.2287,0,-0.2186,-0.2164,-0.2197,-0.2174,-0.2141,-0.2181,-0.2161,-0.2156,-0.2156,-0.2128,-0.2077,-0.2034,-0.2058,-0.205,-0.2027,-0.2119,-0.2095,-0.2069,-0.2201,-0.2205,-0.2071,-0.2012,-0.1743,-0.1855,-0.2287,-0.2287,-0.2287,0,-0.2165,-0.2131,-0.2104,-0.2071,-0.2068,-0.2078,-0.2031,-0.2019,-0.195,-0.1963,-0.1895,-0.1906,-0.1869,-0.1921,-0.1977,-0.1999,-0.2054,-0.2124,-0.2131,-0.2007,-0.2066,-0.1938,-0.1839,-0.2286,-0.2286,-0.2286,-0.2286,0,-0.2108,-0.2082,-0.2038,-0.2036,-0.2005,-0.2003,-0.1988,-0.1945,-0.1911,-0.1847,-0.1862,-0.1799,-0.1867,-0.1881,-0.2013,-0.2024,-0.215,-0.2148,-0.2061,-0.2061,-0.1841,-0.182,-0.2105,-0.2105,-0.2105,-0.2104,-0.2104,0,-0.2035,-0.2009,-0.1996,-0.1959,-0.1888,-0.1939,-0.1859,-0.183,-0.1809,-0.177,-0.176,-0.1776,-0.188,-0.1965,-0.2018,-0.2065,-0.212,-0.2027,-0.2048,-0.1826,-0.1802,-0.2164,-0.2169,-0.2111,-0.2109,-0.2108,-0.2107,0,-0.1993,-0.1976,-0.1903,-0.1861,-0.185,-0.1815,-0.1803,-0.1743,-0.1748,-0.1741,-0.174,-0.1828,-0.1932,-0.2009,-0.2123,-0.2093,-0.2113,-0.2086,-0.1879,-0.1863,-0.2069,-0.2069,-0.2008,-0.2004,-0.2001,-0.1998,-0.1995,0,-0.1952,-0.1907,-0.184,-0.1793,-0.1775,-0.1726,-0.1692,-0.1693,-0.167,-0.176,-0.1777,-0.189,-0.192,-0.2035,-0.1959,-0.1955,-0.2066,-0.1724,-0.1572,-0.2007,-0.2037,-0.2043,-0.2048,-0.1346,-0.1338,-0.1332,-0.1327,0,-0.1847,-0.1847,-0.1784,-0.169,-0.1657,-0.1603,-0.1587,-0.1583,-0.163,-0.1656,-0.1747,-0.1783,-0.184,-0.1687,-0.1659,-0.1616,-0.1689,-0.1591,-0.2067,-0.1372,-0.1382,-0.1412,-0.1439,-0.1271,-0.1277,-0.1281,-0.1284,-0.1286,-0.1785,-0.1735,-0.1664,-0.1581,-0.153,-0.1508,-0.1459,-0.1502,-0.1496,-0.1548,-0.1663,-0.1629,-0.1581,-0.1355,-0.1265,-0.1169,-0.1316,-0.1226,-0.1245,-0.1272,-0.1122,-0.1118,-0.0942,-0.0945,-0.0948,-0.0951,-0.0953,0,-0.1662,-0.1636,-0.1558,-0.1458,-0.1382,-0.1403,-0.1386,-0.1351,-0.136,-0.1385,-0.1415,-0.1206,-0.1023,-0.0983,-0.0684,-0.0621,-0.0634,-0.0616,-0.0602,-0.0653,-0.0701,-0.0524,-0.0185,-0.0184,-0.0183,-0.0182,0,0,-0.16,-0.1496,-0.1466,-0.1322,-0.1278,-0.1181,-0.1172,-0.1159,-0.1111,-0.1069,-0.0976,-0.1031,-0.0927,-0.0586,-0.046,-0.0265,-0.0485,-0.0238,-0.0835,-0.0869,-0.0916,-0.1009,-0.0788,0,0,0,0,0]},{"header":{"parameterUnit":"m.s-1","parameterCategory":2,"la1":30.2991,"la2":30.254,"lo1":-89.0895,"lo2":-89.0444,"dy":0.0017,"dx":0.0017,"nx":28,"ny":28,"refTime":"2025-04-15T03:00:00:Z","depth":"2","parameterNumber":3,"parameterNumberName":"V-component_of_CURRENTS"},"data":[0,0,0,0,0,0,0,0,0,0,0,0,0,0,0,0,0,0,0,0,0,0,0,0,0,0,0,0,0,0,0,0,0,0,0,0,0,0,0,0,0,0,0,0,0,0,0,0,0,0,0,0,0,0,0,0,0,0,-0.0729,-0.0728,0,-0.0604,-0.0602,-0.06,-0.0596,-0.0598,-0.06,-0.0602,-0.0246,-0.0235,-0.0223,0,0,0,0,0,0,0,0,0,0,0,0,0,-0.0726,-0.0727,-0.0729,-0.0728,-0.0727,-0.0604,-0.0602,-0.0599,-0.0595,-0.0598,-0.0601,-0.0603,-0.025,-0.0236,-0.0222,0,0,0,0,0,0,0,0,0,0,0,0,0,-0.067,-0.0728,-0.0729,-0.0716,-0.0715,-0.0604,-0.0601,-0.0598,-0.0595,-0.0598,-0.0602,-0.0605,-0.0254,-0.0237,-0.022,-0.0045,0,0,-0.0167,-0.016,0,0,0,0,0,0,0,0,-0.0673,-0.0669,-0.0719,-0.0717,-0.0715,-0.0626,-0.047,-0.0405,-0.0594,-0.0632,-0.0602,-0.0606,-0.0354,-0.0329,-0.029,-0.0029,-0.0013,-0.0166,-0.0155,-0.0148,-0.0143,0,0,0,0,0,0,0,-0.0678,-0.0673,-0.0671,-0.0718,-0.0716,-0.0636,-0.0633,-0.0457,-0.0465,-0.0629,-0.063,-0.0628,-0.0351,-0.0307,-0.0281,-0.0008,-0.0166,-0.0151,-0.014,-0.0133,0.0289,0.029,0,0,0,0,0,0,-0.0718,-0.0678,-0.0675,-0.0668,-0.0711,-0.0635,-0.0631,-0.0644,-0.0472,-0.0453,-0.0625,-0.0628,-0.0335,-0.0301,-0.0268,-0.0129,-0.0148,-0.0131,-0.0121,0.0288,0.0289,0.029,0,0,0,0,0,0,-0.0719,-0.0719,-0.0681,-0.0675,-0.0666,-0.0634,-0.0647,-0.064,-0.0621,-0.0473,-0.0449,-0.0618,-0.0336,-0.0292,-0.0193,-0.0112,-0.0124,-0.0108,0.0287,0.0288,0.0289,0.0202,0,0,0,0,0,0,-0.0719,-0.072,-0.0734,-0.0679,-0.0669,-0.0633,-0.0645,-0.0636,-0.0617,-0.062,-0.0456,-0.0427,-0.0335,-0.022,-0.0176,-0.0088,-0.0094,0.0286,0.0288,0.0289,0.0204,0.02,0.0196,0,0,0,0,0,-0.072,-0.0731,-0.0735,-0.0735,-0.0692,-0.0633,-0.0618,-0.0599,-0.0614,-0.0595,-0.054,-0.0434,-0.0178,-0.0207,-0.0154,-0.0059,0.0285,0.0287,0.0289,0.0205,0.0201,0.0197,0,0,0,0,0,0,-0.0733,-0.073,-0.0734,-0.0745,-0.0702,-0.0636,-0.0617,-0.0602,-0.0539,-0.0555,-0.0427,-0.0392,-0.0266,-0.0164,-0.0199,0.0059,0.0079,0.0091,-0.0003,-0.0005,-0.0009,-0.0033,-0.008,0,0,0,0,0,-0.0743,-0.0759,-0.0725,-0.0732,-0.0714,-0.0664,-0.0638,-0.0632,-0.0575,-0.0554,-0.0458,-0.0342,-0.0204,-0.0122,0.0003,0.0158,0.0165,0.0251,0.0247,0.0243,0.0256,0.029,0.0289,0.0296,0.0296,0.0296,0,0,-0.075,-0.0752,-0.0759,-0.0736,-0.07,-0.0644,-0.0655,-0.0632,-0.0576,-0.0511,-0.0421,-0.0347,-0.0175,-0.004,0.0034,0.0052,0.0229,0.0246,0.0242,0.0257,0.0291,0.029,0.0289,0.0297,0.0297,0.0296,0,0,-0.0759,-0.077,-0.0777,-0.0741,-0.0713,-0.0654,-0.0654,-0.0605,-0.0577,-0.049,-0.0436,-0.0351,-0.0136,-0.002,0.0082,0.015,0.0198,0.0201,0.0196,0.0227,0.0226,0.0226,0.0151,0.0145,0.0214,0.0213,0.0213,0,-0.0766,-0.0766,-0.0761,-0.0742,-0.0711,-0.0659,-0.0628,-0.0551,-0.0485,-0.0464,-0.0477,-0.0239,-0.0106,0.0086,0.0084,0.0155,0.0112,0.0197,0.0219,0.0219,0.0221,0.0145,0.014,0.0209,0.021,0.021,0.0211,0,-0.0763,-0.0753,-0.0744,-0.0697,-0.0663,-0.0622,-0.0543,-0.0517,-0.0484,-0.0417,-0.03,-0.0175,-0.0041,0.0031,0.009,0.0195,0.0135,0.0191,0.0218,0.0214,0.0135,0.013,0.0204,0.0205,0.0206,0.0207,0,0,-0.0799,-0.0749,-0.0754,-0.073,-0.0644,-0.0619,-0.0536,-0.0443,-0.0409,-0.0319,-0.0264,-0.0045,-0.0034,0.0076,0.0162,0.0199,0.0149,0.0176,0.018,0.0079,0.0101,0.0153,0.0152,0.0176,0.0177,0.0178,0.001,0,-0.0783,-0.0756,-0.0734,-0.0669,-0.0625,-0.0584,-0.0502,-0.0434,-0.0368,-0.03,-0.016,-0.0045,0.002,0.0049,0.0104,0.0145,0.0146,0.0183,0.0143,0.0141,0.0172,0.0156,0.0273,0.0144,0.0006,0.0005,0.0005,0,-0.0786,-0.0757,-0.0719,-0.0665,-0.0651,-0.0608,-0.055,-0.0469,-0.0348,-0.0318,-0.0214,-0.0117,0.0002,0.0034,0.0098,0.0092,0.0087,0.0101,0.0096,0.0188,0.019,0.0149,0.0142,-0.0002,-0.0002,-0.0001,-0.0001,0,-0.0811,-0.0757,-0.0731,-0.0704,-0.0616,-0.0632,-0.0583,-0.0495,-0.0444,-0.0334,-0.0336,-0.0165,-0.015,-0.0063,-0.0027,0.0013,-0.0035,0.0047,0.0082,0.0079,0.0205,0.0216,0.0074,0.0074,0.0074,0.0075,0.0075,0,-0.079,-0.0777,-0.0753,-0.0726,-0.0699,-0.0666,-0.0627,-0.0584,-0.0513,-0.0471,-0.0342,-0.0302,-0.0191,-0.0182,-0.0093,-0.0051,-0.0083,0.007,0.0068,0.017,0.0179,0.0106,0.0112,0.0068,0.007,0.0071,0.0072,0,-0.0817,-0.0789,-0.0755,-0.0712,-0.0701,-0.0697,-0.0656,-0.0634,-0.0594,-0.0565,-0.0542,-0.047,-0.046,-0.038,-0.0321,-0.0188,-0.0099,-0.0088,-0.0034,-0.0019,-0.0004,-0.0001,-0.0025,-0.0024,-0.0023,-0.0023,-0.0022,0,-0.0817,-0.0802,-0.0765,-0.0747,-0.0732,-0.0713,-0.0695,-0.0657,-0.0641,-0.0645,-0.0638,-0.066,-0.0611,-0.0523,-0.0327,-0.0201,-0.0199,-0.0006,0.0188,-0.0001,-0.0002,0.0001,0.0003,0.0253,0.0256,0.0258,0.026,0,-0.0798,-0.0808,-0.0782,-0.0753,-0.0752,-0.0725,-0.0717,-0.0736,-0.073,-0.0734,-0.0745,-0.0716,-0.0645,-0.0397,-0.0265,-0.0136,0.0018,0.0051,-0.0161,0.0292,0.0259,0.0259,0.0253,0.0281,0.0279,0.0277,0.0276,0.0275,-0.0798,-0.0799,-0.0779,-0.0762,-0.0743,-0.0757,-0.0765,-0.0788,-0.0797,-0.0829,-0.0809,-0.0707,-0.0505,-0.0193,-0.0074,0.0078,0.0099,0.027,0.0264,0.0255,0.035,0.0326,0.0368,0.0366,0.0365,0.0364,0.0363,0,-0.0769,-0.0794,-0.078,-0.0761,-0.0758,-0.0758,-0.0774,-0.0794,-0.0847,-0.0798,-0.078,-0.0517,-0.0237,-0.0065,0.0245,0.0401,0.0382,0.0419,0.0438,0.0422,0.0407,0.0509,0.0568,0.0567,0.0567,0.0566,0,0,-0.0758,-0.0755,-0.0769,-0.0772,-0.0781,-0.0803,-0.0838,-0.086,-0.0788,-0.0747,-0.0586,-0.0437,-0.0121,0.0125,0.0309,0.0473,0.0382,0.046,0.0315,0.0311,0.0291,0.0378,0.0526,0,0,0,0,0]}],[{"header":{"parameterUnit":"m.s-1","parameterCategory":2,"la1":30.2991,"la2":30.254,"lo1":-89.0895,"lo2":-89.0444,"dy":0.0017,"dx":0.0017,"nx":28,"ny":28,"refTime":"2025-04-15T03:00:00:Z","depth":"4","parameterNumber":2,"parameterNumberName":"U-component_of_CURRENTS"},"data":[0,0,0,0,0,0,0,0,0,0,0,0,0,0,0,0,0,0,0,0,0,0,0,0,0,0,0,0,0,0,0,0,0,0,0,0,0,0,0,0,0,0,0,0,0,0,0,0,0,0,0,0,0,0,0,0,0,0,-0.0995,-0.0994,0,-0.0915,-0.0914,-0.0913,-0.0884,-0.0884,-0.0885,-0.0886,-0.0936,-0.0937,-0.0938,0,0,0,0,0,0,0,0,0,0,0,0,0,-0.105,-0.1049,-0.0995,-0.0994,-0.0994,-0.0916,-0.0914,-0.0913,-0.0884,-0.0884,-0.0885,-0.0886,-0.0936,-0.0937,-0.0938,0,0,0,0,0,0,0,0,0,0,0,0,0,-0.1,-0.1049,-0.0995,-0.0973,-0.097,-0.0916,-0.0914,-0.0912,-0.0883,-0.0884,-0.0885,-0.0886,-0.0936,-0.0937,-0.0938,-0.0925,0,0,-0.0941,-0.0942,0,0,0,0,0,0,0,0,-0.1003,-0.0997,-0.0977,-0.0974,-0.0972,-0.0914,-0.0952,-0.0924,-0.0883,-0.0912,-0.0886,-0.0887,-0.0943,-0.0943,-0.0918,-0.0927,-0.093,-0.0941,-0.0942,-0.0942,-0.0943,0,0,0,0,0,0,0,-0.1006,-0.1,-0.0959,-0.0976,-0.0973,-0.0943,-0.0937,-0.0945,-0.0922,-0.091,-0.0908,-0.0906,-0.0942,-0.0917,-0.092,-0.093,-0.0941,-0.0942,-0.0943,-0.0943,-0.1024,-0.1025,0,0,0,0,0,0,-0.1027,-0.1004,-0.0962,-0.0957,-0.0995,-0.0941,-0.0935,-0.0928,-0.0919,-0.0919,-0.0905,-0.0905,-0.0915,-0.0919,-0.0922,-0.0962,-0.0942,-0.0943,-0.0944,-0.1022,-0.1024,-0.1026,0,0,0,0,0,0,-0.1028,-0.1024,-0.0965,-0.0982,-0.0973,-0.094,-0.0933,-0.0926,-0.0919,-0.0915,-0.0917,-0.0908,-0.0916,-0.092,-0.0952,-0.0963,-0.0944,-0.0945,-0.1021,-0.1023,-0.1025,-0.1009,0,0,0,0,0,0,-0.103,-0.1025,-0.1028,-0.0984,-0.0973,-0.0927,-0.0932,-0.0924,-0.0917,-0.0916,-0.0918,-0.0922,-0.0917,-0.0951,-0.0953,-0.0964,-0.0946,-0.1019,-0.1022,-0.1024,-0.1007,-0.101,-0.1012,0,0,0,0,0,-0.1032,-0.1028,-0.1028,-0.1024,-0.0979,-0.0927,-0.0917,-0.0895,-0.0917,-0.0896,-0.0924,-0.0923,-0.0971,-0.0952,-0.0955,-0.0966,-0.1017,-0.1021,-0.1024,-0.1006,-0.1009,-0.1012,0,0,0,0,0,0,-0.1046,-0.1024,-0.1023,-0.1012,-0.0974,-0.0923,-0.0914,-0.0906,-0.0905,-0.0926,-0.0933,-0.0938,-0.0969,-0.098,-0.0959,-0.1003,-0.0997,-0.1001,-0.0983,-0.0986,-0.0989,-0.1002,-0.0947,0,0,0,0,0,-0.1055,-0.1048,-0.1013,-0.1001,-0.0993,-0.0961,-0.0944,-0.0926,-0.092,-0.0919,-0.0931,-0.0959,-0.098,-0.0994,-0.1006,-0.1027,-0.1022,-0.1043,-0.1045,-0.1047,-0.1064,-0.104,-0.1041,-0.1037,-0.1037,-0.1036,0,0,-0.106,-0.1044,-0.1042,-0.1004,-0.0984,-0.0961,-0.0952,-0.0927,-0.0923,-0.093,-0.0951,-0.0965,-0.0989,-0.1008,-0.1024,-0.102,-0.1048,-0.1051,-0.1052,-0.1068,-0.1043,-0.1043,-0.1043,-0.1039,-0.1038,-0.1038,0,0,-0.1045,-0.1054,-0.1037,-0.1013,-0.0983,-0.0966,-0.0968,-0.0935,-0.0941,-0.0955,-0.0968,-0.0999,-0.1025,-0.1036,-0.105,-0.1083,-0.106,-0.1087,-0.1107,-0.1083,-0.1082,-0.1082,-0.1076,-0.1074,-0.1089,-0.1089,-0.1089,0,-0.1051,-0.1028,-0.102,-0.0994,-0.0984,-0.0979,-0.0956,-0.0956,-0.0941,-0.096,-0.0972,-0.102,-0.1043,-0.1067,-0.1085,-0.1088,-0.1068,-0.1084,-0.1082,-0.1081,-0.1081,-0.1075,-0.1074,-0.1088,-0.1088,-0.1088,-0.1088,0,-0.1015,-0.1006,-0.0997,-0.0976,-0.0959,-0.0939,-0.0942,-0.0954,-0.0985,-0.0987,-0.1025,-0.1045,-0.1074,-0.1085,-0.1102,-0.1112,-0.1098,-0.108,-0.1063,-0.1079,-0.1073,-0.1072,-0.1088,-0.1088,-0.1088,-0.1088,0,0,-0.1004,-0.0978,-0.0977,-0.0972,-0.0952,-0.0936,-0.0959,-0.0967,-0.1003,-0.1012,-0.104,-0.1089,-0.1099,-0.1119,-0.1123,-0.112,-0.1111,-0.1104,-0.1102,-0.1079,-0.1057,-0.0989,-0.0982,-0.1068,-0.1068,-0.1068,-0.1053,0,-0.0978,-0.094,-0.0933,-0.0918,-0.0907,-0.0925,-0.0949,-0.0967,-0.1002,-0.1033,-0.1065,-0.1094,-0.1108,-0.1121,-0.1119,-0.1112,-0.1108,-0.1118,-0.1063,-0.1063,-0.0983,-0.0978,-0.1067,-0.1052,-0.1052,-0.1051,-0.1051,0,-0.0938,-0.0925,-0.09,-0.0911,-0.0913,-0.0917,-0.0969,-0.0984,-0.1035,-0.1063,-0.1086,-0.1099,-0.1119,-0.1119,-0.1108,-0.1103,-0.1093,-0.1084,-0.1082,-0.1027,-0.0992,-0.1036,-0.1049,-0.1049,-0.105,-0.105,-0.105,0,-0.093,-0.0906,-0.0896,-0.0892,-0.0903,-0.0927,-0.0952,-0.1002,-0.103,-0.1074,-0.1088,-0.1103,-0.1107,-0.1091,-0.1099,-0.109,-0.1075,-0.1051,-0.0982,-0.0978,-0.1049,-0.105,-0.1039,-0.1039,-0.1039,-0.1039,-0.104,0,-0.0898,-0.0896,-0.0902,-0.0901,-0.0923,-0.0934,-0.0978,-0.1012,-0.1053,-0.107,-0.1098,-0.1085,-0.1096,-0.1089,-0.1088,-0.1035,-0.1061,-0.099,-0.0964,-0.1046,-0.1047,-0.1048,-0.1049,-0.1039,-0.1039,-0.1039,-0.1039,0,-0.0875,-0.0878,-0.0879,-0.0905,-0.0915,-0.0938,-0.0982,-0.1014,-0.1054,-0.1066,-0.1072,-0.1072,-0.1053,-0.1073,-0.1053,-0.1009,-0.098,-0.096,-0.1069,-0.1049,-0.0903,-0.0904,-0.0857,-0.0855,-0.0852,-0.0851,-0.0849,0,-0.0855,-0.0848,-0.0878,-0.0894,-0.0909,-0.0943,-0.0967,-0.1013,-0.1032,-0.1037,-0.1028,-0.1021,-0.1019,-0.0941,-0.0961,-0.0951,-0.0942,-0.0911,-0.0893,-0.0902,-0.0882,-0.0886,-0.089,-0.0845,-0.0845,-0.0844,-0.0844,0,-0.0822,-0.0843,-0.0846,-0.0877,-0.0905,-0.0919,-0.0952,-0.0957,-0.099,-0.1024,-0.0956,-0.0919,-0.0896,-0.0876,-0.0891,-0.0877,-0.0917,-0.0888,-0.0892,-0.0874,-0.0887,-0.087,-0.0877,-0.0836,-0.0837,-0.0838,-0.0838,0,-0.0804,-0.0802,-0.0822,-0.0844,-0.0876,-0.088,-0.0902,-0.0897,-0.0908,-0.0919,-0.0881,-0.0871,-0.088,-0.0836,-0.0837,-0.0834,-0.0807,-0.0757,-0.0767,-0.0776,-0.0755,-0.0761,-0.0645,0,0,0,0,0,-0.0781,-0.0777,-0.079,-0.0805,-0.0835,-0.085,-0.088,-0.0901,-0.0924,-0.086,-0.0873,-0.0848,-0.0795,-0.078,-0.0761,-0.0806,-0.0829,-0.0775,-0.0782,-0.0793,-0.0802,-0.0785,0,0,0,0,0,0,-0.0766,-0.0776,-0.0771,-0.0768,-0.077,-0.0786,-0.08,-0.0812,-0.0786,-0.0807,-0.0797,-0.0788,-0.0778,-0.0816,-0.0744,-0.0745,-0.0725,-0.078,-0.0777,-0.0788,-0.0796,-0.0803,-0.0789,0,0,0,0,0]},{"header":{"parameterUnit":"m.s-1","parameterCategory":2,"la1":30.2991,"la2":30.254,"lo1":-89.0895,"lo2":-89.0444,"dy":0.0017,"dx":0.0017,"nx":28,"ny":28,"refTime":"2025-04-15T03:00:00:Z","depth":"4","parameterNumber":3,"parameterNumberName":"V-component_of_CURRENTS"},"data":[0,0,0,0,0,0,0,0,0,0,0,0,0,0,0,0,0,0,0,0,0,0,0,0,0,0,0,0,0,0,0,0,0,0,0,0,0,0,0,0,0,0,0,0,0,0,0,0,0,0,0,0,0,0,0,0,0,0,-0.0243,-0.0243,0,-0.0215,-0.0215,-0.0214,-0.018,-0.0179,-0.0179,-0.0179,-0.0119,-0.0118,-0.0117,0,0,0,0,0,0,0,0,0,0,0,0,0,-0.0235,-0.0236,-0.0243,-0.0243,-0.0243,-0.0215,-0.0215,-0.0214,-0.018,-0.0179,-0.0179,-0.0178,-0.012,-0.0118,-0.0117,0,0,0,0,0,0,0,0,0,0,0,0,0,-0.0225,-0.0236,-0.0243,-0.0223,-0.0221,-0.0215,-0.0215,-0.0214,-0.018,-0.0179,-0.0179,-0.0178,-0.012,-0.0118,-0.0117,-0.0118,0,0,-0.0111,-0.0111,0,0,0,0,0,0,0,0,-0.0226,-0.0225,-0.0226,-0.0225,-0.0222,-0.0201,-0.019,-0.0181,-0.018,-0.0194,-0.0179,-0.0178,-0.0145,-0.0141,-0.0136,-0.0116,-0.0113,-0.0111,-0.011,-0.0109,-0.0109,0,0,0,0,0,0,0,-0.0226,-0.0226,-0.0231,-0.0226,-0.0224,-0.0205,-0.0203,-0.0188,-0.0172,-0.0193,-0.0191,-0.019,-0.0144,-0.0138,-0.0134,-0.0112,-0.0111,-0.011,-0.0109,-0.0108,-0.0062,-0.0062,0,0,0,0,0,0,-0.0235,-0.0227,-0.0232,-0.023,-0.0224,-0.0206,-0.0203,-0.0208,-0.0173,-0.0168,-0.019,-0.0188,-0.0141,-0.0137,-0.0132,-0.0113,-0.0109,-0.0108,-0.0107,-0.0062,-0.0062,-0.0062,0,0,0,0,0,0,-0.0235,-0.0236,-0.0233,-0.0228,-0.0227,-0.0207,-0.0212,-0.0208,-0.0202,-0.0172,-0.0165,-0.0189,-0.0141,-0.0135,-0.0115,-0.0111,-0.0107,-0.0105,-0.0062,-0.0062,-0.0062,-0.0087,0,0,0,0,0,0,-0.0235,-0.0236,-0.0244,-0.0229,-0.0227,-0.0225,-0.0212,-0.0208,-0.0203,-0.02,-0.0169,-0.0162,-0.014,-0.0118,-0.0113,-0.0109,-0.0104,-0.0063,-0.0062,-0.0062,-0.0086,-0.0088,-0.0089,0,0,0,0,0,-0.0235,-0.0247,-0.0245,-0.0246,-0.0239,-0.0225,-0.0222,-0.0205,-0.0204,-0.0198,-0.0178,-0.0163,-0.0112,-0.0116,-0.0111,-0.0106,-0.0063,-0.0062,-0.0062,-0.0086,-0.0087,-0.0089,0,0,0,0,0,0,-0.0243,-0.0245,-0.0242,-0.0253,-0.0239,-0.022,-0.0218,-0.0211,-0.0193,-0.0191,-0.0164,-0.0156,-0.0138,-0.012,-0.0125,-0.0091,-0.0084,-0.0083,-0.0104,-0.0105,-0.0106,-0.007,-0.0102,0,0,0,0,0,-0.0252,-0.0264,-0.0252,-0.026,-0.0256,-0.024,-0.0235,-0.0223,-0.0206,-0.0197,-0.0176,-0.0153,-0.0134,-0.0118,-0.0099,-0.0082,-0.0026,-0.0074,-0.0076,-0.0077,-0.0043,0.0039,0.005,-0.0061,-0.0061,-0.0061,0,0,-0.0256,-0.0259,-0.0265,-0.0263,-0.0253,-0.0243,-0.0235,-0.0227,-0.0217,-0.0194,-0.0176,-0.0161,-0.0132,-0.0111,-0.0101,-0.0093,-0.002,-0.0076,-0.0078,-0.0042,0.0041,0.0052,0.0062,-0.0061,-0.0061,-0.0061,0,0,-0.0262,-0.0274,-0.0279,-0.0271,-0.0261,-0.0251,-0.0251,-0.0233,-0.0223,-0.0212,-0.0189,-0.0157,-0.0147,-0.0102,-0.0086,-0.0079,-0.0034,-0.0093,-0.0062,0.0016,0.0027,0.0037,0.0107,0.0123,-0.0088,-0.0088,-0.0088,0,-0.0264,-0.0272,-0.0275,-0.0271,-0.0266,-0.0255,-0.0248,-0.0237,-0.0213,-0.0195,-0.021,-0.0149,-0.0131,-0.0072,-0.0071,-0.0077,-0.0033,-0.0064,0.0017,0.0028,0.0039,0.0108,0.0127,-0.0089,-0.0089,-0.0089,-0.0089,0,-0.0266,-0.0271,-0.0272,-0.0267,-0.026,-0.0255,-0.024,-0.0229,-0.0229,-0.0206,-0.0164,-0.0132,-0.0084,-0.0087,-0.008,0.0002,0.0007,-0.0001,0.0023,0.0049,0.012,0.014,-0.0091,-0.009,-0.009,-0.009,0,0,-0.0276,-0.0274,-0.0275,-0.0272,-0.026,-0.0255,-0.0239,-0.021,-0.0186,-0.0166,-0.012,-0.0083,-0.0053,-0.0029,-0.0009,0.006,0.0158,0.006,0.0064,0.0135,0.0329,0.0218,0.023,0.0156,0.016,0.0163,0.0342,0,-0.0273,-0.027,-0.0269,-0.0262,-0.0258,-0.0245,-0.023,-0.0202,-0.0179,-0.0133,-0.008,-0.0038,-0.0037,-0.0016,0.0057,0.0125,0.0212,0.0111,0.0291,0.0298,0.02,0.025,0.0174,0.0358,0.0362,0.0366,0.0368,0,-0.0273,-0.0273,-0.027,-0.026,-0.0257,-0.0252,-0.022,-0.0204,-0.0135,-0.0113,-0.0042,-0.0004,0.01,0.0087,0.0264,0.0192,0.0277,0.0335,0.0343,0.0272,0.0224,0.0331,0.0405,0.0402,0.04,0.0397,0.0395,0,-0.028,-0.0274,-0.0276,-0.0273,-0.0259,-0.0255,-0.0246,-0.0195,-0.0174,-0.0087,-0.0053,0.0065,0.0117,0.0244,0.034,0.0316,0.053,0.051,0.0509,0.0502,0.0561,0.0548,0.068,0.068,0.068,0.0679,0.0679,0,-0.0279,-0.0282,-0.0283,-0.0285,-0.0284,-0.027,-0.0252,-0.0221,-0.0164,-0.0116,-0.004,0.0027,0.0159,0.0275,0.0378,0.0489,0.0567,0.0545,0.0551,0.0541,0.0524,0.0574,0.0559,0.0686,0.0684,0.0683,0.0682,0,-0.0285,-0.0285,-0.0292,-0.0289,-0.0291,-0.0293,-0.0279,-0.0257,-0.0203,-0.0134,-0.0105,0.0018,0.0151,0.0278,0.0479,0.0515,0.0646,0.0678,0.0663,0.0659,0.0568,0.055,0.0713,0.0711,0.0709,0.0708,0.0706,0,-0.0287,-0.0291,-0.0306,-0.0314,-0.0318,-0.032,-0.0317,-0.0281,-0.0253,-0.0135,-0.0097,0.0036,0.0123,0.0338,0.045,0.0633,0.0641,0.0711,0.0648,0.0587,0.0577,0.0561,0.0546,0.0703,0.0703,0.0702,0.0702,0,-0.0293,-0.0305,-0.0314,-0.0333,-0.0342,-0.0343,-0.0335,-0.0317,-0.0254,-0.0204,-0.0071,0.0041,0.0178,0.0319,0.0437,0.0571,0.0658,0.0692,0.0697,0.0638,0.0577,0.0565,0.0552,0.0695,0.0696,0.0697,0.0697,0,-0.0305,-0.0315,-0.0335,-0.0352,-0.036,-0.0355,-0.0349,-0.0303,-0.0268,-0.0144,-0.0096,0.0067,0.0165,0.029,0.0415,0.05,0.0518,0.0543,0.0556,0.0564,0.0428,0.0322,0.0397,0,0,0,0,0,-0.0315,-0.0334,-0.0349,-0.0365,-0.0372,-0.038,-0.0353,-0.0338,-0.0278,-0.019,-0.0143,-0.0009,0.0159,0.0244,0.0314,0.0355,0.0511,0.0433,0.0541,0.0659,0.0667,0.0516,0,0,0,0,0,0,-0.0323,-0.0345,-0.0355,-0.0375,-0.039,-0.0394,-0.0378,-0.0335,-0.0283,-0.0204,-0.0109,-0.0033,0.013,0.0113,0.0301,0.0328,0.0397,0.0521,0.0522,0.0655,0.0662,0.0668,0.0516,0,0,0,0,0]}]]